Weather History for Gilmer, TX

Change the Weather History Date:

Saturday, March 23, 2013

  Actual Average (KGGG) Record (KGGG)
Temperature  
Mean Temperature 54 °F 59 °F  
Max Temperature 62 °F 71 °F 89 °F (1995)
Min Temperature 46 °F 48 °F 30 °F (1952)
Degree Days  
Heating Degree Days 11 7  
Month to date heating degree days 206  
Since 1 July heating degree days 2110  
Cooling Degree Days 0 1  
Month to date cooling degree days 23  
Year to date cooling degree days 35  
Growing Degree Days 4 (Base 50)    
Moisture  
Dew Point 50 °F    
Average Humidity 98    
Maximum Humidity 100    
Minimum Humidity 72    
Precipitation  
Precipitation 0.00 in 0.15 in 1.75 in (1947)
Month to date precipitation 3.25  
Year to date precipitation 10.61  
Snow  
Snow 0.00 in - - ()
Month to date snowfall  
Since 1 July snowfall  
Snow Depth -    
Sea Level Pressure  
Sea Level Pressure 29.77 in    
Wind  
Wind Speed 4 mph (NE)    
Max Wind Speed 10 mph    
Max Gust Speed 20 mph    
Visibility 4 miles    
Events Rain , Thunderstorm    
T = Trace of Precipitation, MM = Missing Value Source: NWS Daily Summary

Daily Weather History Graph

Daily Weather History Graph

Search for Another Location

Airport:

Trip Planner

Search our weather history database for the weather conditions in past years. The results will help you decide how hot, cold, wet, or windy it might be!

Date:

Astronomy

Mar. 23, 2013 Rise Set
Actual Time 7:19 AM CDT 7:33 PM CDT
Civil Twilight 6:54 AM CDT 7:58 PM CDT
Nautical Twilight 6:25 AM CDT 8:27 PM CDT
Astronomical Twilight 5:56 AM CDT 8:56 PM CDT
Moon 4:11 PM CDT (3/23) 4:45 AM CDT (3/23)
Length of Visible Light 13h 03m
Length of Day
12h 14m
Waxing Gibbous, 85% of the Moon is Illuminated
Mar 23
Waxing Gibbous
Mar 27
Full
Apr 2
Last Quarter
Apr 10
New
Apr 18
First Quarter

Hourly Weather History & Observations

Time (CDT) Temp. Windchill Dew Point Humidity Pressure Visibility Wind Dir Wind Speed Gust Speed Precip Events Conditions
12:15 AM 48.2 °F - 48.2 °F 100% 29.85 in 3.0 mi NE 5.8 mph - N/A   Overcast
12:35 AM 48.2 °F - 48.2 °F 100% 29.85 in 3.0 mi Calm Calm - N/A   Overcast
12:55 AM 48.2 °F - 48.2 °F 100% 29.84 in 2.0 mi NE 4.6 mph - N/A   Overcast
1:15 AM 48.2 °F - 48.2 °F 100% 29.84 in 1.5 mi Calm Calm - N/A   Overcast
1:35 AM 48.2 °F - 48.2 °F 100% 29.84 in 1.2 mi Calm Calm - N/A   Overcast
1:55 AM 48.2 °F - 48.2 °F 100% 29.82 in 1.5 mi NE 4.6 mph - N/A   Overcast
2:15 AM 48.2 °F - 48.2 °F 100% 29.82 in 1.8 mi NE 3.5 mph - N/A   Overcast
2:55 AM 48.2 °F - 48.2 °F 100% 29.82 in 3.0 mi Calm Calm - N/A   Overcast
3:15 AM 48.2 °F - 48.2 °F 100% 29.81 in 5.0 mi ENE 3.5 mph - N/A   Overcast
3:35 AM 46.4 °F 45.2 °F 46.4 °F 100% 29.80 in 3.0 mi NE 3.5 mph - N/A   Overcast
3:55 AM 46.4 °F - 46.4 °F 100% 29.81 in 5.0 mi Calm Calm - N/A   Overcast
4:15 AM 46.4 °F 44.3 °F 46.4 °F 100% 29.79 in 3.0 mi NE 4.6 mph - N/A   Overcast
4:35 AM 46.4 °F - 46.4 °F 100% 29.79 in 2.0 mi Calm Calm - N/A   Overcast
4:55 AM 46.4 °F 43.5 °F 46.4 °F 100% 29.81 in 1.8 mi North 5.8 mph - N/A   Overcast
5:15 AM 46.4 °F 44.3 °F 46.4 °F 100% 29.82 in 2.0 mi North 4.6 mph - N/A   Overcast
5:35 AM 46.4 °F 44.3 °F 46.4 °F 100% 29.82 in 1.8 mi North 4.6 mph - N/A   Overcast
5:55 AM 46.4 °F 45.2 °F 46.4 °F 100% 29.82 in 1.5 mi North 3.5 mph - N/A   Overcast
6:15 AM 46.4 °F 41.9 °F 46.4 °F 100% 29.83 in 1.2 mi North 9.2 mph - N/A   Overcast
6:55 AM 46.4 °F 42.9 °F 46.4 °F 100% 29.83 in 2.0 mi NNE 6.9 mph - N/A   Overcast
7:15 AM 46.4 °F 45.2 °F 46.4 °F 100% 29.85 in 1.8 mi NNE 3.5 mph - N/A   Overcast
7:35 AM 46.4 °F 45.2 °F 46.4 °F 100% 29.85 in 1.2 mi East 3.5 mph - N/A   Overcast
7:55 AM 46.4 °F - 46.4 °F 100% 29.86 in 5.0 mi Calm Calm - N/A   Overcast
8:15 AM 46.4 °F 45.2 °F 46.4 °F 100% 29.87 in 5.0 mi NE 3.5 mph - N/A   Overcast
8:55 AM 46.4 °F 44.3 °F 46.4 °F 100% 29.85 in 3.0 mi East 4.6 mph - N/A   Overcast
9:15 AM 48.2 °F - 48.2 °F 100% 29.91 in 3.0 mi Calm Calm - N/A   Overcast
9:35 AM 48.2 °F - 48.2 °F 100% 29.94 in 3.0 mi NW 9.2 mph - N/A Rain , Thunderstorm Heavy Thunderstorms and Rain
9:55 AM 48.2 °F - 48.2 °F 100% 29.88 in 2.5 mi NE 4.6 mph - N/A Thunderstorm Light Drizzle
10:15 AM 48.2 °F - 48.2 °F 100% 29.86 in 8.0 mi NE 5.8 mph - N/A   Overcast
10:35 AM 48.2 °F - 48.2 °F 100% 29.84 in 10.0 mi East 4.6 mph - N/A   Overcast
10:55 AM 48.2 °F - 48.2 °F 100% 29.82 in 10.0 mi East 5.8 mph - N/A   Overcast
11:15 AM 50.0 °F - 50.0 °F 100% 29.80 in 10.0 mi ESE 4.6 mph - N/A   Overcast
11:35 AM 51.8 °F - 51.8 °F 100% 29.80 in 10.0 mi East 6.9 mph - N/A   Overcast
11:55 AM 53.6 °F - 53.6 °F 100% 29.78 in 10.0 mi East 6.9 mph - N/A   Overcast
12:15 PM 57.2 °F - 53.6 °F 88% 29.76 in 10.0 mi East 5.8 mph - N/A   Scattered Clouds
12:35 PM 59.0 °F - 53.6 °F 82% 29.75 in 10.0 mi ESE 6.9 mph - N/A   Partly Cloudy
12:55 PM 60.8 °F - 53.6 °F 77% 29.75 in 10.0 mi ESE 3.5 mph - N/A   Partly Cloudy
1:15 PM 62.6 °F - 53.6 °F 72% 29.73 in 10.0 mi SSE 3.5 mph - N/A   Partly Cloudy
1:35 PM 62.6 °F - 53.6 °F 72% 29.72 in 10.0 mi SSE 4.6 mph - N/A Thunderstorm Mostly Cloudy
1:55 PM 60.8 °F - 53.6 °F 77% 29.71 in 10.0 mi SSE 8.1 mph - N/A Thunderstorm Overcast
2:15 PM 57.2 °F - 53.6 °F 88% 29.73 in 3.0 mi NW 10.4 mph 19.6 mph N/A Rain , Thunderstorm Rain
2:35 PM 55.4 °F - 53.6 °F 94% 29.72 in 5.0 mi North 5.8 mph - N/A   Overcast
2:55 PM 55.4 °F - 53.6 °F 94% 29.70 in 5.0 mi North 9.2 mph - N/A Rain , Thunderstorm Heavy Thunderstorms and Rain
3:15 PM 53.6 °F - 53.6 °F 100% 29.71 in 1.0 mi NNE 5.8 mph - N/A Rain , Thunderstorm Heavy Rain
3:35 PM 53.6 °F - 53.6 °F 100% 29.70 in 1.8 mi Calm Calm - N/A Rain , Thunderstorm Heavy Rain
3:55 PM 53.6 °F - 53.6 °F 100% 29.69 in 0.8 mi NNE 3.5 mph - N/A Rain , Thunderstorm Thunderstorms and Rain
4:15 PM 53.6 °F - 53.6 °F 100% 29.68 in 5.0 mi Calm Calm - N/A Thunderstorm Overcast
4:35 PM 53.6 °F - 53.6 °F 100% 29.68 in 1.2 mi North 3.5 mph - N/A Rain , Thunderstorm Heavy Thunderstorms and Rain
4:55 PM 53.6 °F - 53.6 °F 100% 29.68 in 0.5 mi NNE 5.8 mph - N/A Rain , Thunderstorm Heavy Rain
5:15 PM 53.6 °F - 53.6 °F 100% 29.70 in 2.0 mi NNW 4.6 mph - N/A Rain , Thunderstorm Rain
5:35 PM 53.6 °F - 53.6 °F 100% 29.70 in 2.5 mi NNW 6.9 mph - N/A Thunderstorm Drizzle
5:55 PM 53.6 °F - 53.6 °F 100% 29.71 in 1.8 mi NNW 4.6 mph - N/A   Drizzle
6:15 PM 53.6 °F - 53.6 °F 100% 29.71 in 5.0 mi North 5.8 mph - N/A   Overcast
6:35 PM 53.6 °F - 53.6 °F 100% 29.71 in 5.0 mi NNW 10.4 mph - N/A   Overcast
6:55 PM 53.6 °F - 53.6 °F 100% 29.71 in 4.0 mi North 4.6 mph - N/A   Overcast
7:15 PM 53.6 °F - 53.6 °F 100% 29.71 in 3.0 mi North 5.8 mph - N/A   Overcast
7:35 PM 53.6 °F - 53.6 °F 100% 29.72 in 4.0 mi NNW 5.8 mph - N/A   Overcast
7:55 PM 51.8 °F - 51.8 °F 100% 29.72 in 5.0 mi North 6.9 mph - N/A   Overcast
8:15 PM 53.6 °F - 53.6 °F 100% 29.73 in 4.0 mi North 4.6 mph - N/A   Overcast
8:35 PM 53.6 °F - 53.6 °F 100% 29.73 in 3.0 mi North 4.6 mph - N/A   Overcast
8:55 PM 51.8 °F - 51.8 °F 100% 29.72 in 1.8 mi NNE 6.9 mph - N/A   Overcast
9:15 PM 51.8 °F - 51.8 °F 100% 29.72 in 1.5 mi North 4.6 mph - N/A   Overcast
9:55 PM 51.8 °F - 51.8 °F 100% 29.73 in 6.0 mi NNE 4.6 mph - N/A   Overcast
10:15 PM 51.8 °F - 51.8 °F 100% 29.72 in 7.0 mi NE 5.8 mph - N/A   Overcast
10:55 PM 51.8 °F - 51.8 °F 100% 29.70 in 5.0 mi East 3.5 mph - N/A   Overcast
11:15 PM 51.8 °F - 51.8 °F 100% 29.69 in 5.0 mi East 4.6 mph - N/A   Overcast
11:35 PM 51.8 °F - 51.8 °F 100% 29.67 in 2.5 mi ESE 6.9 mph - N/A   Overcast
11:55 PM 51.8 °F - 51.8 °F 100% 29.67 in 0.8 mi ESE 4.6 mph - N/A   Overcast